Location: Haliburton Scout Reserve
(45.0900°N, 78.3200°W)
Time: 02:35:30
(UTC-04:00)

DIWATA 2B (PO-101) - Pass Details

Date: 18 May 2022
Orbit: 585 x 597 km, 98.0° (Epoch: 27 June)

Event Time Altitude Azimuth Distance (km) Brightness Sun altitude
Exits shadow 02:44:57 40° 133° (SE) 867 ? -21.8°
Maximum altitude 02:46:11 60° 73° (ENE) 674 ? -21.7°
Drops below altitude 10° 02:50:17 10° 354° (N) 1,921 ? -21.4°
Sets 02:52:29 0° 351° (N) 2,828 ? -21.2°
